Location: Burera
(21.3780°N, 81.9534°E)
Time: 01:14:19
(UTC+00:00)

Delta 142 - Pass Details

Date: 13 August 2020
Orbit: 549 x 1588 km, 28.4° (Epoch: 22 September)

Event Time Altitude Azimuth Distance (km) Brightness Sun altitude
Exits shadow 23:02:35 26° 218° (SW) 1,100 4.3 -15.7°
Maximum altitude 23:03:01 26° 207° (SSW) 1,087 4.4 -15.6°
Drops below altitude 10° 23:06:33 10° 149° (SSE) 1,868 6.1 -14.9°
Sets 23:09:13 0° 137° (SE) 2,852 7.3 -14.3°
